Location: South Range
(44.4886°N, 65.7879°W)
Time: 05:20:57
(UTC-03:00)

Iridium 56 - Visible Passes

Search period start: 26 May 2018 00:00
Search period end: 05 June 2018 00:00
Orbit: 776 x 779 km, 86.4° (Epoch: 25 May)

Date Brightness Start Highest point End Pass type
(mag) Time Alt. Az. Time Alt. Az. Time Alt. Az.
26 May 7.4 21:31:47 10° ESE 21:34:19 14° ENE 21:36:52 10° NE visible
26 May 5.6 23:10:56 22° S 23:14:19 76° W 23:19:34 10° N visible
27 May 5.6 22:37:09 19° SSE 22:40:49 60° E 22:45:58 10° N visible
28 May 7.8 00:18:32 10° WSW 00:21:59 18° WNW 00:25:28 10° NNW visible
28 May 6.3 22:03:20 13° SE 22:07:26 34° E 22:12:06 10° NNE visible
28 May 7.1 23:43:46 11° SW 23:48:09 30° WNW 23:52:45 10° NNW visible
29 May 7.0 21:30:33 10° ESE 21:34:11 19° ENE 21:37:49 10° NE visible
29 May 6.2 23:09:56 13° SSW 23:14:27 54° W 23:19:34 10° N visible
30 May 5.5 22:36:05 12° S 22:40:52 86° E 22:46:08 10° N visible
31 May 8.1 00:20:10 10° W 00:22:20 12° WNW 00:24:31 10° NW visible
31 May 5.9 22:02:27 10° SSE 22:07:25 48° E 22:12:25 10° NNE visible
31 May 7.6 23:44:25 10° SW 23:48:24 22° WNW 23:52:25 10° NNW visible
01 Jun 6.6 21:29:47 10° SE 21:34:05 27° E 21:38:25 10° NNE visible
01 Jun 6.8 23:09:48 10° SSW 23:14:37 38° W 23:19:29 10° NNW visible
02 Jun 5.8 22:35:47 10° SSW 22:40:58 68° W 22:46:11 10° N visible
03 Jun 5.5 22:02:17 10° S 22:07:26 68° E 22:12:38 10° N visible
03 Jun 8.0 23:45:37 10° WSW 23:48:42 16° WNW 23:51:50 10° NW visible
04 Jun 6.2 21:29:16 10° SSE 21:34:02 38° E 21:38:49 10° NNE visible
04 Jun 7.4 23:10:27 10° SW 23:14:50 27° WNW 23:19:16 10° NNW visible
